Date String (YYYY-MM-DD hh:mm:ss) UTC,Instrument flags,Ambient pressure (hPa),Sample flow (lpm),Bypass flow (lpm),Sample temperature (°C),Ambient temperature (°C),ASC tube jacket temperature (°C),LED temperature (°C),Box temperature (°C),Sample RH (%),Span deviation,Mass concentration (μg/m³),Mass concentration (μg/m³),Mass concentration (μg/m³)
DateTimeUTC,F1_M11,P_M11,Q1_M11,Q2_M11,T1_M11,T2_M11,T3_M11,T4_M11,T5_M11,U1_M11,ZSPAN_M11,X0_M11,X2_M11,X1_M11
2022-09-22 23:00:00,,0826.8,4.99,0.00,30.2,28.8,00.0,38.9,32.1,26.7,-002.4,0011.27,0008.56,0008.19
2022-09-22 23:01:00,,0826.8,5.01,0.00,30.2,28.8,00.0,38.9,32.1,26.5,-002.5,0011.38,0008.63,0008.23
2022-09-22 23:02:00,,0826.8,4.99,0.00,30.2,28.8,00.0,38.9,32.1,26.4,-002.7,0011.37,0008.66,0008.27
2022-09-22 23:03:00,,0826.8,5.01,0.00,30.2,28.8,00.0,38.9,32.0,26.4,-002.7,0011.39,0008.68,0008.30
2022-09-22 23:04:00,,0826.8,5.01,0.00,30.2,28.8,00.0,38.9,32.1,26.5,-002.9,0011.43,0008.70,0008.31
2022-09-22 23:05:00,,0826.8,4.99,0.00,30.2,28.8,00.0,39.0,32.1,26.5,-002.9,0011.52,0008.71,0008.33
2022-09-22 23:06:00,,0827.3,5.02,0.00,30.2,28.8,00.0,39.0,32.1,26.6,-002.9,0011.56,0008.72,0008.33
2022-09-22 23:07:00,,0827.0,5.00,0.00,30.2,28.8,00.0,39.0,32.1,26.5,-002.9,0011.50,0008.74,0008.37
2022-09-22 23:08:00,,0826.8,4.99,0.00,30.3,28.8,00.0,39.0,32.1,26.4,-002.9,0011.48,0008.77,0008.42
2022-09-22 23:09:00,,0827.1,5.01,0.00,30.3,28.8,00.0,39.0,32.1,26.4,-002.8,0011.52,0008.82,0008.47
2022-09-22 23:10:00,,0826.9,4.98,0.00,30.3,28.9,00.0,39.0,32.1,26.5,-002.8,0011.54,0008.86,0008.52
2022-09-22 23:11:00,,0826.7,5.01,0.00,30.3,28.9,00.0,39.0,32.1,26.3,-002.9,0011.68,0008.93,0008.57
2022-09-22 23:12:00,,0826.7,5.00,0.00,30.3,28.9,00.0,39.0,32.1,26.3,-003.0,0011.62,0008.93,0008.60
2022-09-22 23:13:00,,0826.8,5.00,0.00,30.3,28.9,00.0,39.0,32.1,26.5,-003.0,0011.57,0008.91,0008.61
2022-09-22 23:14:00,,0826.8,5.01,0.00,30.3,28.9,00.0,39.0,32.1,26.5,-002.9,0011.57,0008.91,0008.61
2022-09-22 23:15:00,,0826.8,4.99,0.00,30.3,28.9,00.0,39.0,32.1,26.5,-003.0,0011.51,0008.90,0008.62
2022-09-22 23:16:00,,0826.8,5.01,0.00,30.3,28.9,00.0,39.0,32.1,26.7,-003.1,0011.37,0008.88,0008.62
2022-09-22 23:17:00,,0826.7,4.99,0.00,30.3,28.9,00.0,39.0,32.1,26.5,-003.0,0011.38,0008.90,0008.65
2022-09-22 23:18:00,,0826.7,4.98,0.00,30.3,28.9,00.0,39.0,32.1,26.5,-003.0,0011.58,0008.92,0008.64
2022-09-22 23:19:00,,0826.7,5.01,0.00,30.3,28.9,00.0,39.0,32.1,26.4,-002.8,0011.71,0008.91,0008.63
2022-09-22 23:20:00,,0826.7,4.99,0.00,30.3,28.9,00.0,39.0,32.1,26.4,-002.8,0011.72,0008.89,0008.60
2022-09-22 23:21:00,,0826.7,5.01,0.00,30.3,28.9,00.0,39.0,32.1,26.4,-002.9,0011.71,0008.86,0008.55
2022-09-22 23:22:00,,0826.7,5.00,0.00,30.3,28.9,00.0,39.0,32.2,26.5,-002.8,0011.55,0008.79,0008.52
2022-09-22 23:23:00,,0826.7,4.99,0.00,30.3,28.9,00.0,39.0,32.2,26.5,-002.6,0011.59,0008.79,0008.49
2022-09-22 23:24:00,,0826.7,5.01,0.00,30.3,28.9,00.0,39.0,32.2,26.4,-002.6,0011.62,0008.80,0008.48
2022-09-22 23:25:00,,0826.7,5.00,0.00,30.3,28.9,00.0,39.0,32.2,26.4,-002.7,0011.56,0008.78,0008.48
2022-09-22 23:26:00,,0826.7,5.00,0.00,30.3,28.9,00.0,39.1,32.2,26.4,-002.8,0011.58,0008.76,0008.45
2022-09-22 23:27:00,,0826.7,4.99,0.00,30.4,28.9,00.0,39.1,32.2,26.5,-002.7,0011.66,0008.77,0008.44
2022-09-22 23:28:00,,0826.7,5.00,0.00,30.4,29.0,00.0,39.1,32.2,26.5,-002.7,0011.65,0008.76,0008.42
2022-09-22 23:29:00,,0826.7,4.99,0.00,30.4,29.0,00.0,39.1,32.2,26.5,-002.5,0011.44,0008.69,0008.39
2022-09-22 23:30:00,,0826.7,5.01,0.00,30.4,29.0,00.0,39.1,32.2,26.5,-002.7,0011.14,0008.62,0008.33
2022-09-22 23:31:00,,0826.7,4.99,0.00,30.4,29.0,00.0,39.1,32.2,26.4,-002.5,0011.07,0008.58,0008.29
2022-09-22 23:32:00,,0826.7,5.00,0.00,30.4,29.0,00.0,39.1,32.2,26.4,-002.4,0011.03,0008.56,0008.26
2022-09-22 23:33:00,,0826.7,5.00,0.00,30.4,29.0,00.0,39.1,32.2,26.5,-002.2,0011.04,0008.54,0008.23
2022-09-22 23:34:00,,0826.6,4.99,0.00,30.4,29.0,00.0,39.1,32.2,26.5,-002.4,0010.99,0008.50,0008.19
2022-09-22 23:35:00,,0826.5,5.00,0.00,30.4,29.0,00.0,39.1,32.2,26.3,-002.3,0011.26,0008.46,0008.16
2022-09-22 23:36:00,,0826.6,5.00,0.00,30.4,29.0,00.0,39.1,32.2,26.2,-002.3,0011.30,0008.46,0008.14
2022-09-22 23:37:00,,0826.7,4.99,0.00,30.4,29.0,00.0,39.1,32.2,26.2,-002.0,0011.30,0008.47,0008.14
2022-09-22 23:38:00,,0826.6,5.01,0.00,30.4,29.0,00.0,39.1,32.2,26.2,-002.0,0011.25,0008.45,0008.12
2022-09-22 23:39:00,,0826.6,4.99,0.00,30.4,29.0,00.0,39.1,32.2,26.2,-002.0,0011.24,0008.43,0008.11
2022-09-22 23:40:00,,0826.5,4.99,0.00,30.4,29.0,00.0,39.1,32.2,26.3,-001.9,0011.38,0008.46,0008.11
2022-09-22 23:41:00,,0826.5,5.01,0.00,30.4,29.0,00.0,39.1,32.2,26.3,-001.8,0011.39,0008.49,0008.13
2022-09-22 23:42:00,,0826.5,4.99,0.00,30.4,29.0,00.0,39.1,32.3,26.2,-001.8,0011.43,0008.50,0008.15
2022-09-22 23:43:00,,0826.5,5.00,0.00,30.4,29.0,00.0,39.1,32.3,26.3,-001.8,0011.37,0008.48,0008.15
2022-09-22 23:44:00,,0826.5,5.01,0.00,30.4,29.0,00.0,39.1,32.3,26.4,-001.8,0011.38,0008.49,0008.17
2022-09-22 23:45:00,,0826.5,4.99,0.00,30.4,29.0,00.0,39.2,32.3,26.3,-001.9,0011.36,0008.50,0008.19
2022-09-22 23:46:00,,0826.5,5.01,0.00,30.4,29.0,00.0,39.2,32.3,26.3,-002.1,0011.05,0008.52,0008.21
2022-09-22 23:47:00,,0826.5,4.99,0.00,30.4,29.0,00.0,39.2,32.3,26.2,-002.1,0011.05,0008.53,0008.22
2022-09-22 23:48:00,,0826.5,5.00,0.00,30.4,29.0,00.0,39.2,32.3,26.2,-002.1,0011.25,0008.53,0008.23
2022-09-22 23:49:00,,0826.5,5.01,0.00,30.4,29.0,00.0,39.2,32.3,26.3,-002.0,0011.95,0008.56,0008.26
2022-09-22 23:50:00,,0826.5,5.01,0.00,30.4,29.0,00.0,39.2,32.3,26.3,-002.0,0012.10,0008.57,0008.27
2022-09-22 23:51:00,,0826.4,4.99,0.00,30.4,29.0,00.0,39.2,32.3,26.3,-002.1,0012.06,0008.58,0008.30
2022-09-22 23:52:00,,0826.4,5.01,0.00,30.5,29.0,00.0,39.2,32.3,26.3,-002.3,0012.11,0008.61,0008.32
2022-09-22 23:53:00,,0826.3,5.00,0.00,30.5,29.0,00.0,39.2,32.3,26.2,-002.4,0012.15,0008.63,0008.34
2022-09-22 23:54:00,,0826.2,4.99,0.00,30.5,29.0,00.0,39.2,32.3,26.1,-002.4,0012.54,0008.68,0008.36
2022-09-22 23:55:00,,0826.2,5.01,0.00,30.5,29.0,00.0,39.2,32.3,26.3,-002.5,0012.62,0008.67,0008.36
2022-09-22 23:56:00,,0826.2,5.00,0.00,30.5,29.0,00.0,39.2,32.3,26.4,-002.3,0012.69,0008.69,0008.37
2022-09-22 23:57:00,,0826.2,5.00,0.00,30.5,29.0,00.0,39.2,32.3,26.4,-002.1,0013.01,0008.72,0008.39
2022-09-22 23:58:00,,0826.2,5.01,0.00,30.5,29.0,00.0,39.2,32.3,26.3,-002.1,0013.01,0008.72,0008.41
2022-09-22 23:59:00,,0826.2,5.00,0.00,30.5,29.0,00.0,39.2,32.3,26.2,-002.4,0012.72,0008.71,0008.41
